CAPE
1234 1390 1190 1030 1062 889 829 801 595 617 506 515 636 561 485 540 366 421 538 639 578 567 689 812 815 728 654 918 833 1006 1135 1276 1242 1172 1085 1062 1022 919 798 885 779 720 825 790 651 512 482 423 350 338 388 389 339 294 293 255 196 181 252 292 198 141 166 126 106 20 41 221 204 153 154 197 216 861 1281 1152 1049 1080 1239 1821 1638 1261 1122 1138 1260
1509 1440 1426 1497 1062 1133 919 778 872 1001 784 880 786 640 557 717 844 623 462 747 793 557 717 596 604 781 662 738 1024 1087 1248 1344 1238 1077 1200 1131 1023 876 925 874 836 820 883 824 699 563 434 405 379 390 413 363 261 204 148 66 35 16 12 43 68 30 68 94 65 35 12 14 23 123 236 217 161 187 191 892 1693 1619 1622 1603 1847 1755 1387 1267 1349
1444 1663 1465 1398 1309 1179 1131 1018 972 857 839 690 328 295 302 496 460 440 394 263 669 742 672 620 860 843 806 921 1136 1216 1219 1300 1246 1146 1344 1366 1368 1380 1265 1146 1096 972 834 743 632 527 420 361 293 315 318 254 240 175 68 28 2 0 0 2 19 31 17 35 82 44 25 19 38 123 278 311 249 220 225 230 585 1479 1811 1608 1489 1663 1325 1228 1198
1144 1666 1629 1313 1110 1120 1124 1078 692 400 304 465 209 180 87 31 34 454 618 188 276 439 449 583 685 857 902 891 981 1093 1446 1537 1453 1167 1132 1145 1156 1162 1222 1281 1123 977 874 725 574 495 380 341 329 295 271 227 202 152 69 2 0 0 0 1 8 16 14 14 29 54 37 45 23 91 246 304 301 309 397 475 660 967 1261 933 1057 1228 1247 1323 1155
1317 1568 1600 1256 1073 1233 842 790 638 621 397 87 62 18 0 4 71 2 76 94 184 503 990 876 984 1179 1010 973 919 854 1052 1548 1099 974 1081 1161 1193 1016 1031 1199 1198 1120 1018 764 484 538 420 336 331 298 222 181 94 70 32 1 0 0 1 4 9 14 14 9 6 26 54 64 42 50 74 161 298 374 366 350 363 503 1108 1104 913 903 1106 1199 1156
1534 1585 1402 1411 1496 1045 996 798 615 585 550 378 233 154 92 89 4 2 214 77 338 147 329 518 492 764 804 798 747 797 1178 1395 1058 814 856 1120 1393 1445 1100 1083 1130 1154 1109 683 516 501 402 376 350 310 249 154 98 60 27 4 0 0 2 7 14 20 18 16 14 26 36 60 94 60 158 194 280 340 336 364 364 376 620 1166 1109 978 987 1040 1168
944 1032 1163 1200 1330 1091 995 945 839 454 615 480 416 138 59 11 6 169 70 115 65 90 115 286 610 534 653 710 707 833 1162 1503 1352 1208 984 988 987 1043 1015 934 952 1016 970 550 453 408 386 376 364 316 284 232 161 89 16 7 1 2 13 12 14 24 20 14 14 14 22 28 38 105 235 337 304 246 355 384 421 499 663 709 834 1017 976 943 1005
1083 1224 1070 1217 1347 1051 807 911 843 920 646 597 362 363 292 276 509 577 446 216 180 262 159 193 243 333 460 555 652 781 1124 1806 1472 1219 1106 855 791 662 1069 1149 908 877 837 672 559 424 420 372 208 274 304 228 173 55 1 0 1 3 12 22 26 34 20 11 6 8 14 20 26 34 110 264 253 134 287 400 418 416 405 307 251 473 928 835 870
1182 1200 1460 1395 1052 918 909 744 801 858 829 841 683 636 689 569 635 688 718 649 487 350 285 299 427 591 625 669 822 938 1522 1054 1184 1302 1181 897 840 873 1071 972 804 783 752 634 558 616 594 558 338 277 446 404 59 6 0 0 0 0 6 27 40 33 14 1 2 5 8 24 34 45 60 135 218 200 219 302 294 286 499 515 345 365 807 836 744
1410 1542 1498 1496 1317 1022 1015 887 903 939 784 739 804 856 664 799 615 690 838 775 836 818 858 829 393 299 530 614 664 730 722 448 919 539 362 1030 1080 1046 1232 1210 1111 1055 893 724 574 557 582 561 562 568 339 197 98 60 0 0 0 0 42 62 54 29 18 6 0 4 9 17 24 36 37 39 96 206 210 235 306 368 427 442 469 632 925 696 571
1829 1832 1873 1636 1513 1259 1244 1208 1200 1056 933 759 831 862 952 956 1015 1137 1183 1184 1281 1086 868 834 235 212 324 427 555 805 638 666 198 248 328 518 809 1329 1594 1421 1220 1123 972 699 642 642 641 638 628 690 765 800 844 610 314 0 0 0 140 127 99 72 35 14 3 2 27 29 14 22 37 37 36 98 156 277 359 360 366 468 494 558 433 330 345
1828 2090 1920 1669 1526 1429 1293 1424 1320 1288 1189 1137 1146 1104 1065 1164 1265 1317 1374 1278 1425 1253 727 690 678 674 543 497 684 1099 1184 468 304 0 281 541 671 1201 1339 1255 1151 1126 1053 829 648 600 639 702 719 765 935 1032 896 691 462 348 163 199 209 161 105 54 20 29 32 8 5 14 7 4 16 23 18 16 28 152 245 348 388 417 592 381 243 206 152
2005 2144 1937 1619 1531 1360 1428 1404 1400 1330 1322 1314 1296 1212 1322 1375 1395 1346 1312 1483 1232 1146 1016 740 736 810 840 1008 1124 998 1165 641 43 3 58 473 646 721 1024 1176 1215 1236 1198 1000 782 782 948 1028 903 850 897 649 804 895 775 690 528 363 228 130 59 4 20 34 41 31 8 11 18 19 32 24 18 8 7 41 208 252 287 286 249 278 340 277 252
2173 2163 2104 1906 1616 1449 1346 1303 1283 1282 1379 1410 1395 1384 1277 1311 1328 1177 1288 1413 1177 1074 753 681 818 1055 1105 1102 1142 1010 1050 828 488 124 1 2 141 521 813 1091 1266 1154 1160 1105 1044 989 1136 1188 1039 902 709 477 411 545 800 733 556 318 185 131 113 99 57 60 36 20 17 13 21 20 8 20 28 13 13 13 52 162 277 366 248 158 83 44 218
2096 2196 2202 2030 1773 1559 1442 1347 1316 1386 1416 1423 1479 1449 1445 1480 1496 1444 1417 1279 1123 1184 1029 982 959 731 765 1073 1274 1176 1063 674 350 25 0 0 0 10 584 999 1197 1125 1085 952 958 996 1110 852 632 538 297 296 146 354 598 561 338 247 148 138 148 124 125 104 50 13 4 1 4 12 9 15 22 16 13 15 17 30 184 268 368 305 157 125 382
1916 1997 2033 2019 1841 1542 1434 1374 1420 1469 1461 1474 1504 1532 1615 1751 1757 1972 1804 1288 947 763 873 857 769 653 762 731 621 749 533 224 0 0 0 0 0 97 653 1173 1290 1213 1007 900 964 1125 956 764 332 126 82 48 254 294 395 436 376 268 185 168 130 90 94 85 56 6 8 6 2 0 0 0 1 1 2 9 30 73 211 241 374 369 163 144 237
1779 1826 1895 1942 1736 1540 1299 1309 1402 1450 1451 1436 1475 1489 1633 1788 1921 2047 1729 1277 929 880 847 715 730 745 659 836 892 927 736 541 58 0 0 0 46 693 1101 1218 1207 1075 991 1026 1178 767 532 611 301 150 45 268 361 559 668 546 391 252 209 189 123 110 104 92 42 26 35 8 3 1 0 0 0 0 0 0 0 0 76 353 129 278 237 115 10
1726 1857 1961 1873 1778 1570 1463 1382 1487 1524 1517 1469 1469 1478 1259 1167 1377 1976 1722 1219 764 601 669 613 666 703 683 666 282 571 618 371 0 0 0 0 50 443 988 1238 1200 1233 1081 1168 1324 1177 854 652 338 202 214 340 717 851 684 510 259 116 133 144 133 127 99 83 85 58 4 8 0 0 0 0 0 0 0 0 0 0 0 15 204 276 190 138 172
1744 1971 2136 1995 1768 1632 1562 1590 1576 1549 1531 1438 1285 1232 1286 1267 1444 1792 1390 1084 885 1023 849 589 512 573 410 296 345 434 440 426 342 474 385 0 2 496 1104 1217 1192 1196 1261 1288 1320 1378 1156 1004 659 489 396 681 548 554 415 54 0 17 79 115 153 170 151 136 92 30 5 4 1 0 0 0 3 0 0 0 0 0 0 3 314 319 156 159 236
2163 2190 2147 2043 1795 1684 1502 1741 1687 1454 1537 1636 1534 1216 1228 1108 842 849 1161 964 877 916 870 572 467 376 285 347 278 626 516 615 799 469 268 0 0 334 1128 1248 1124 1071 1125 1086 1047 946 876 778 541 24 279 452 445 165 0 0 0 0 62 132 190 188 142 100 71 64 43 33 20 2 55 14 52 0 0 0 0 0 0 0 120 380 196 153 232
2565 2576 2448 1921 1788 1757 1630 1731 1754 1592 1575 1546 1322 1088 985 921 1093 1216 1118 1067 1197 1165 1024 775 525 626 709 683 646 718 339 573 807 369 115 0 0 311 813 782 945 925 988 948 752 453 333 469 531 458 408 373 38 0 0 0 0 21 91 155 191 171 153 132 132 99 88 60 34 22 16 25 29 42 0 0 0 0 0 0 4 195 262 220 232
2745 2694 2429 2126 1940 1802 1546 1558 1692 1726 1692 1955 1816 1875 1653 1611 1144 999 1106 1272 1244 1028 1070 1054 637 453 498 291 215 99 157 442 794 510 474 350 362 399 455 304 317 356 297 317 311 336 639 773 720 677 301 0 0 0 0 0 12 105 122 136 147 146 164 151 169 101 60 46 23 22 20 44 186 188 142 0 0 0 0 0 2 50 186 253 340
3145 2763 2497 2281 2143 1985 1907 1913 1846 1896 1720 1676 1604 1420 1586 1419 1524 1503 1532 981 1406 1083 745 380 123 212 326 122 124 248 279 290 604 862 690 496 354 391 0 0 0 6 195 387 513 582 546 569 678 334 0 0 0 62 0 112 195 212 109 104 108 106 123 115 90 69 44 13 22 76 35 175 171 202 182 119 0 3 4 3 7 28 99 180 250
2671 2890 2663 2403 2283 2106 1926 1888 1959 1839 1895 1800 1480 1102 1236 1122 888 688 874 821 606 776 653 495 686 462 242 256 350 330 326 280 494 512 594 184 15 0 0 0 0 0 91 121 158 210 362 585 359 0 0 0 93 218 289 383 325 119 98 56 69 71 58 30 26 44 50 11 15 93 53 52 116 192 230 159 187 140 148 115 93 64 47 84 193
2868 2932 2903 2556 2392 1844 1674 1245 951 1318 1036 1071 1350 1173 1024 866 472 480 691 368 221 639 866 650 696 698 758 245 352 759 921 783 821 961 514 278 210 0 0 0 0 0 0 3 198 469 463 2 0 0 0 94 214 319 572 430 39 84 69 35 1 51 55 61 44 26 44 25 15 42 26 21 33 58 149 199 165 473 472 369 173 200 107 75 75
2241 2012 2196 2474 2042 2007 1400 1125 1019 901 882 1151 1028 768 781 860 785 970 670 590 816 1421 891 681 674 660 802 732 657 906 995 948 709 752 282 252 60 0 0 0 0 0 0 0 0 0 0 0 0 0 206 299 325 826 635 469 4 0 7 13 10 64 68 43 42 11 42 40 26 40 42 45 36 42 13 32 117 2 146 196 263 215 199 153 190
3051 2970 2938 2278 2086 1630 1450 1447 1019 1091 1276 894 1575 1203 848 864 706 530 650 943 1680 1431 1169 1002 934 581 815 811 570 737 626 439 347 229 242 47 0 0 0 0 0 0 2 335 1 0 0 1 46 316 306 382 405 348 308 316 86 7 0 22 79 114 85 84 11 34 36 35 41 49 57 57 47 24 0 8 0 114 24 128 222 128 103 306 625
3071 3021 2878 2484 2114 1861 1390 1258 1245 918 668 874 907 997 1320 1161 716 463 624 1086 1205 926 680 821 567 418 746 279 704 618 514 221 0 0 0 0 0 0 0 0 0 0 0 0 0 0 0 0 459 886 733 327 71 20 141 203 40 6 20 49 104 130 140 139 133 50 27 29 43 49 44 60 58 46 16 0 35 77 69 67 198 312 269 259 397
2452 1887 1669 1771 1574 1713 1442 1020 1242 1054 965 790 0 0 278 292 526 545 413 57 0 0 48 51 19 5 8 388 317 373 132 0 0 0 0 0 0 0 0 0 0 0 0 0 0 0 7 325 738 48 0 0 0 0 0 12 1 9 20 40 82 124 130 147 132 103 44 37 28 49 53 53 73 60 35 0 26 24 31 74 125 332 306 306 195
1593 1453 935 926 1093 1098 914 686 783 933 662 1835 270 0 140 290 298 10 0 0 0 0 0 0 0 0 0 0 0 0 0 0 0 0 0 0 0 0 0 0 0 0 0 0 0 0 55 464 0 0 0 0 0 0 0 0 0 0 8 30 54 91 119 123 120 98 82 41 39 58 74 56 71 75 57 27 2 0 0 9 181 178 225 362 308
1263 900 749 425 1071 985 1129 812 869 1181 552 727 1081 359 335 24 28 29 0 0 0 0 0 0 0 0 0 0 0 0 0 0 0 0 0 0 0 0 0 0 0 0 0 0 2 824 4 0 0 0 0 0 0 0 0 0 0 0 0 0 16 54 82 108 104 87 84 80 27 29 60 56 54 65 62 55 16 0 0 0 0 45 119 70 12
1373 1157 922 716 2243 1710 989 1185 960 952 897 906 748 931 275 417 438 467 426 355 0 0 0 0 0 0 0 0 0 0 0 0 0 0 0 0 0 0 0 0 0 0 0 0 146 6 0 0 0 0 0 0 0 0 0 0 0 0 0 0 0 0 11 58 62 73 84 80 47 33 40 46 32 46 55 46 51 41 11 0 0 5 5 10 21
898 740 1057 1510 1017 1008 856 1141 1174 1015 990 1008 1211 941 757 713 452 444 293 326 0 0 0 0 0 0 0 0 0 0 0 0 0 0 0 0 0 0 0 0 0 0 0 0 0 0 0 0 0 0 0 0 0 0 0 0 0 0 0 0 0 0 6 14 25 50 94 102 84 54 52 39 23 28 30 38 35 47 43 29 23 0 1 2 0
962 1077 814 878 950 900 699 992 774 875 1346 1321 751 626 716 702 548 404 268 17 0 0 0 0 0 0 0 0 0 0 0 0 0 0 0 0 0 0 0 0 0 0 0 0 0 0 0 0 0 0 0 0 0 0 0 0 0 0 0 0 0 0 8 13 18 21 24 49 77 89 68 55 36 25 20 18 26 41 49 48 36 28 31 14 0
806 688 848 775 597 633 359 700 819 729 895 907 1196 972 1069 1033 632 427 278 27 3 0 0 0 0 0 0 0 0 0 0 0 0 0 0 0 0 0 0 7 228 0 0 0 0 0 0 0 0 0 0 1 1 0 1 0 0 0 0 0 0 0 0 0 0 0 0 16 29 33 49 63 59 47 40 24 16 18 40 46 47 61 66 67 18
520 620 1124 756 780 1039 1179 1282 1228 1046 928 881 607 864 649 586 605 717 616 440 278 76 1 1 0 0 0 0 0 0 0 0 0 0 0 0 0 0 0 0 0 0 0 0 0 0 0 0 0 0 2 2 2 1 0 2 2 1 0 0 0 0 0 0 0 0 0 0 7 23 32 33 35 37 47 50 38 46 44 40 57 76 90 83 74
840 970 1267 1250 1050 1037 1000 908 1102 1253 665 627 661 729 433 346 343 235 206 194 296 261 16 0 0 0 0 2 0 0 0 0 0 0 0 0 0 0 0 0 0 0 0 0 0 4 2 1 2 3 3 3 2 3 2 4 6 6 4 2 1 0 0 0 0 0 0 0 0 0 4 14 20 23 16 27 49 59 73 73 68 75 85 100 93
1089 1030 1074 1027 959 1006 653 839 590 519 791 633 818 668 355 328 204 94 38 33 14 4 1 0 0 0 0 0 0 0 0 0 0 0 0 0 0 0 0 0 0 0 0 1 3 4 5 2 2 4 5 3 3 3 2 1 0 1 2 3 2 1 0 0 0 0 0 0 0 0 0 0 0 0 15 18 14 20 40 71 76 78 78 84 117
623 493 353 467 615 749 521 691 705 586 613 531 435 331 236 125 65 4 11 1 0 0 0 0 0 0 0 0 0 0 0 0 0 0 0 0 0 0 0 0 0 2 2 2 3 3 2 2 3 3 2 2 0 0 0 0 0 0 0 0 0 0 0 0 0 0 0 0 0 0 0 0 0 0 0 0 6 14 14 27 44 60 66 75 78
696 603 384 72 368 381 415 747 634 651 659 364 330 151 74 23 0 0 0 0 0 0 0 0 0 0 0 0 0 0 0 0 0 0 0 0 0 0 0 0 0 1 3 2 3 4 2 4 2 1 0 0 0 0 0 0 0 0 0 0 0 0 0 0 0 0 0 0 0 0 0 0 0 0 0 0 0 0 0 6 14 23 54 68 72
610 472 320 298 407 419 452 451 435 484 350 242 183 107 10 1 0 0 0 0 0 0 0 0 0 0 0 0 0 0 0 0 0 0 0 0 0 0 0 0 0 0 1 3 7 6 8 7 4 7 5 0 0 0 0 0 0 0 0 0 0 0 0 0 0 0 0 0 0 0 0 0 0 0 0 0 0 0 0 0 0 4 20 41 50
710 422 341 357 218 341 370 338 310 232 152 101 63 4 0 0 0 0 0 0 1 0 0 0 0 0 0 0 0 0 0 0 0 0 0 0 0 0 0 0 1 0 2 7 9 6 1 0 0 4 0 0 0 0 0 0 0 0 0 0 0 0 0 0 0 0 0 0 0 0 0 0 0 0 0 0 0 0 0 0 0 0 1 0 3
445 372 435 278 346 421 338 279 187 103 71 31 2 2 1 2 0 3 3 5 5 0 0 0 0 0 0 0 0 0 0 0 3 2 2 0 0 0 0 0 0 0 2 5 3 3 1 0 0 0 0 0 0 0 0 0 0 0 0 0 0 0 0 0 0 0 0 0 0 0 0 0 0 0 0 0 0 0 0 0 0 0 0 0 0
314 256 258 320 306 256 183 237 65 7 10 5 0 0 3 4 0 0 1 3 1 1 0 0 0 0 0 0 0 1 3 2 3 5 5 0 0 2 1 0 0 0 0 0 0 0 0 0 0 0 0 0 0 0 0 0 0 0 0 0 0 0 0 0 0 0 0 0 0 0 0 0 0 0 0 0 0 0 0 0 0 0 0 0 0
282 210 232 256 238 102 77 76 1 3 1 8 4 0 0 0 1 13 0 0 0 1 2 0 0 0 0 0 1 2 2 2 7 7 4 2 4 5 1 1 0 0 0 0 0 0 0 0 0 0 0 0 0 0 0 0 0 0 0 0 0 0 0 0 0 0 0 0 0 0 0 0 0 0 0 0 0 0 0 0 0 0 0 0 0
160 97 74 226 193 57 4 2 7 3 0 1 9 2 0 0 7 9 1 0 0 0 0 0 0 0 0 0 1 3 2 2 2 1 4 6 3 6 3 1 1 2 0 0 0 0 0 0 0 0 0 0 0 0 0 0 0 0 0 0 0 0 0 0 0 0 0 0 0 0 0 0 0 0 0 0 0 0 0 0 0 0 0 0 0
3 5 0 1 2 0 8 3 3 2 8 1 10 2 3 33 15 2 1 1 0 0 0 0 1 0 0 0 2 2 4 3 2 0 0 2 2 2 1 3 2 0 0 0 0 0 0 0 0 0 0 0 0 0 0 0 0 0 0 0 0 0 0 0 0 0 0 0 0 0 0 0 0 0 0 0 0 0 0 0 0 0 0 0 0
3 3 3 3 9 8 4 4 3 1 2 6 6 5 2 2 1 0 0 0 0 0 0 0 0 0 1 1 0 0 0 0 0 6 3 2 0 0 0 0 0 0 0 0 0 0 0 0 0 0 0 0 0 0 0 0 0 0 0 0 0 0 0 0 0 0 0 0 0 0 0 0 0 0 0 0 0 0 0 0 0 0 0 0 0
1 1 2 1 3 4 2 3 6 3 2 4 5 9 3 0 0 0 0 0 0 0 0 0 0 0 0 0 1 0 0 1 1 0 0 1 0 0 0 0 0 0 0 0 0 0 0 0 0 0 0 0 0 0 0 0 0 0 0 0 0 0 0 0 0 0 0 0 0 0 0 0 0 0 0 0 0 0 0 0 0 0 0 0 0
1 3 2 1 0 1 11 11 9 8 12 5 6 9 10 9 3 2 3 2 1 1 2 1 0 1 0 0 0 0 0 0 0 0 0 0 0 0 0 0 0 0 0 0 0 0 0 0 0 0 0 0 0 0 0 0 0 0 0 0 0 0 0 0 0 0 0 0 0 0 0 0 0 0 0 0 0 0 0 0 0 0 0 0 0
13 2 0 0 3 9 10 11 5 2 9 10 2 2 8 5 1 2 4 4 4 1 0 3 1 0 0 0 0 0 0 0 0 0 0 0 0 0 0 0 0 0 0 0 0 0 0 0 0 0 0 0 0 0 0 0 0 0 0 0 0 0 0 0 0 0 0 0 0 0 0 0 0 0 0 0 0 0 0 0 0 0 0 0 0
Wind_Speed
38 36 35 34 35 37 37 38 38 39 37 37 36 35 34 34 34 35 36 37 37 38 38 39 39 39 38 39 39 39 40 41 42 43 44 43 44 46 45 45 46 45 44 44 45 45 45 44 43 42 42 41 41 42 42 42 43 44 45 44 42 42 41 41 41 nan nan 36 37 36 37 43 43 43 40 43 46 46 44 42 39 40 40 38 35
39 39 37 37 37 38 37 38 39 38 37 37 36 35 34 33 34 35 36 38 40 39 39 40 41 41 41 40 40 39 40 41 41 44 45 45 45 45 45 45 45 43 43 45 46 44 43 42 41 40 42 41 40 41 42 nan nan nan nan nan nan nan nan nan nan nan nan nan nan 35 35 40 41 41 38 40 44 46 45 44 42 38 38 40 38
41 42 40 39 39 38 36 37 38 38 37 36 35 35 34 35 36 36 36 38 39 41 41 42 43 43 42 42 41 40 40 41 43 43 44 44 44 43 44 44 43 41 43 45 43 41 39 39 37 38 39 39 39 39 nan nan nan nan nan nan nan nan nan nan nan nan nan nan nan 37 37 41 42 41 39 37 40 47 47 46 44 39 36 38 40
43 43 44 41 39 37 37 37 38 38 38 37 35 33 nan nan nan 36 39 39 40 41 42 42 43 44 43 42 42 41 40 41 43 43 42 43 43 43 44 44 41 41 42 42 39 37 36 35 35 35 36 37 36 36 nan nan nan nan nan nan nan nan nan nan nan nan nan nan nan nan 39 39 41 40 41 40 39 45 49 47 46 42 38 37 38
44 45 44 42 40 40 40 40 40 38 35 nan nan nan nan nan nan nan nan nan 39 41 43 44 43 44 44 44 44 44 42 44 43 42 42 42 42 43 43 42 41 40 40 39 36 35 35 34 33 34 34 33 nan nan nan nan nan nan nan nan nan nan nan nan nan nan nan nan nan nan nan 39 41 40 43 43 39 41 47 46 45 44 42 40 39
46 46 44 41 41 43 42 41 41 39 37 36 34 34 nan nan nan nan 39 nan 40 40 41 42 42 42 43 44 44 44 44 49 45 44 43 42 42 43 43 40 39 39 38 36 35 34 34 33 33 33 32 32 nan nan nan nan nan nan nan nan nan nan nan nan nan nan nan nan nan nan 42 39 39 39 42 44 42 40 42 47 49 47 45 44 41
40 44 41 40 41 43 44 43 41 38 37 37 37 37 nan nan nan 36 nan 38 nan nan 41 42 43 43 42 44 44 44 45 48 47 45 44 42 41 41 39 36 33 34 37 36 33 32 32 31 32 32 32 33 34 nan nan nan nan nan nan nan nan nan nan nan nan nan nan nan nan 42 44 40 38 40 41 43 44 41 39 45 48 46 43 42 41
42 41 38 37 42 45 43 43 41 39 38 37 39 38 37 37 39 41 41 41 40 41 41 43 43 43 42 43 43 43 44 50 50 49 45 42 40 40 39 39 36 36 38 35 33 31 30 29 29 31 33 34 35 nan nan nan nan nan nan nan nan nan nan nan nan nan nan nan nan nan 47 44 42 39 39 43 44 41 39 41 40 41 42 43 42
41 40 39 39 44 45 44 41 40 40 40 41 41 40 39 40 42 44 44 44 44 43 44 43 44 44 44 44 45 45 47 45 47 50 50 46 45 43 39 37 36 36 36 32 31 31 30 28 28 31 32 32 nan nan nan nan nan nan nan nan nan nan nan nan nan nan nan nan nan nan nan 47 45 44 41 41 40 38 41 40 37 38 41 42 41
42 40 41 43 47 47 44 40 40 41 41 42 42 41 42 44 44 46 46 46 45 46 46 46 44 45 46 45 46 48 52 48 48 49 47 47 45 43 41 38 36 36 34 31 28 28 28 27 27 26 29 30 nan nan nan nan nan nan nan nan nan nan nan nan nan nan nan nan nan nan nan nan nan 43 40 39 40 39 39 38 34 36 42 41 42
41 44 45 48 49 47 44 43 42 43 43 43 43 43 44 45 46 48 49 49 47 47 48 48 46 46 45 45 46 51 52 49 47 44 42 41 43 43 41 37 35 35 33 30 27 25 26 27 28 28 29 31 30 33 36 nan nan nan 29 27 nan nan nan nan nan nan nan nan nan nan nan nan nan nan 38 39 39 37 38 38 33 35 39 40 38
43 47 48 48 48 46 45 45 45 45 45 45 45 46 47 47 48 49 50 50 49 49 49 49 49 48 47 46 47 52 51 48 48 nan 43 42 43 41 38 34 32 33 32 28 25 24 24 26 27 28 28 30 31 31 31 32 34 34 30 27 26 nan nan nan nan nan nan nan nan nan nan nan nan nan nan 38 39 38 38 38 33 32 34 34 35
45 49 48 47 46 45 46 46 47 47 48 46 47 48 49 50 50 50 51 51 51 50 50 50 49 48 46 47 48 49 50 51 nan nan nan 41 39 37 33 30 30 30 28 26 24 24 25 26 24 25 25 24 29 32 33 32 33 33 31 26 nan nan nan nan nan nan nan nan nan nan nan nan nan nan nan nan 39 38 40 37 33 32 33 33 31
47 49 48 47 46 46 46 47 47 49 49 49 49 50 51 52 51 50 50 51 51 51 51 49 48 47 47 49 48 48 48 50 50 46 nan nan 38 36 30 27 28 27 24 22 24 23 24 25 23 23 23 21 20 24 31 33 32 33 30 27 27 nan nan nan nan nan nan nan nan nan nan nan nan nan nan nan nan 37 38 35 33 30 nan nan 26
46 47 47 47 47 47 47 47 48 49 50 50 50 50 51 52 52 52 51 51 51 52 51 49 48 46 47 47 47 47 47 52 52 nan nan nan nan nan 28 26 27 25 24 22 23 24 26 26 24 24 24 23 25 27 30 34 35 33 29 25 25 25 26 28 nan nan nan nan nan nan nan nan nan nan nan nan nan nan 36 34 32 30 30 32 31
45 46 46 47 47 48 48 49 49 50 52 52 51 50 51 51 51 51 50 50 49 48 48 48 46 45 45 45 45 46 45 54 nan nan nan nan nan nan 28 27 27 26 24 24 24 27 26 26 25 25 nan nan 28 27 33 35 35 31 28 25 23 nan nan nan nan nan nan nan nan nan nan nan nan nan nan nan nan nan 36 37 34 37 38 36 30
44 46 46 48 48 48 48 48 49 50 52 53 52 52 51 50 50 50 47 46 45 45 45 46 46 44 44 44 46 47 44 46 nan nan nan nan nan 31 27 27 28 26 25 24 25 26 26 27 28 28 nan 27 26 28 31 35 34 31 29 25 23 22 22 nan nan nan nan nan nan nan nan nan nan nan nan nan nan nan nan 39 34 34 32 33 nan
43 45 45 46 47 47 49 48 49 51 52 53 53 52 51 50 48 49 46 44 43 43 43 43 44 44 43 43 43 42 41 43 nan nan nan nan nan 29 25 25 26 25 23 24 25 26 25 25 27 28 27 27 26 27 30 32 34 34 31 26 21 20 nan nan nan nan nan nan nan nan nan nan nan nan nan nan nan nan nan nan 37 39 31 29 31
44 45 45 46 46 48 49 50 49 51 52 53 53 52 52 51 49 50 47 42 40 41 41 41 41 42 41 41 43 44 38 40 48 41 40 nan nan 28 25 24 24 23 23 23 25 26 24 24 26 27 25 24 25 27 28 nan nan nan nan 26 22 18 15 19 nan nan nan nan nan nan nan nan nan nan nan nan nan nan nan nan 35 39 34 29 27
45 46 46 46 47 48 50 50 51 51 51 52 54 52 51 50 49 47 44 40 38 40 41 41 39 41 42 42 40 40 36 34 38 38 37 nan nan 28 25 23 21 20 21 22 23 24 25 26 28 nan 33 31 27 26 nan nan nan nan nan 27 21 14 12 nan nan nan nan nan nan nan nan nan nan nan nan nan nan nan nan nan 28 35 36 29 28
45 46 46 46 47 48 50 51 51 52 51 51 52 51 51 49 49 48 43 38 37 37 39 40 38 37 38 37 35 34 32 31 36 37 33 nan nan 27 25 23 21 19 21 22 22 23 24 25 26 32 31 27 nan nan nan nan nan nan nan 23 19 12 7 11 19 nan nan nan nan nan nan nan nan nan nan nan nan nan nan nan nan 28 30 27 26
45 46 46 47 46 47 49 50 51 52 52 52 51 51 50 49 50 49 47 41 38 37 35 34 29 25 27 25 30 nan 33 28 31 35 35 32 31 25 24 23 22 21 20 20 21 22 24 24 24 30 28 nan nan nan nan nan nan 32 26 17 10 6 10 11 17 24 nan nan nan nan nan nan 40 40 30 nan nan nan nan nan nan nan 26 24 24
45 46 47 47 46 48 50 52 54 54 53 51 50 51 48 47 46 44 43 37 33 35 37 34 31 32 33 38 38 37 38 38 37 36 37 34 29 26 nan nan nan nan 20 17 19 20 22 21 23 24 nan nan nan nan nan 23 27 29 20 12 8 8 13 14 nan nan nan nan nan nan nan 38 40 41 40 35 nan nan nan nan nan nan nan 28 26
44 45 47 48 48 48 50 53 52 50 48 50 52 51 49 49 47 45 45 37 34 37 40 37 40 42 41 42 43 41 40 41 39 41 38 32 nan nan nan nan nan nan nan 18 19 20 19 21 20 nan nan nan nan 20 23 24 26 23 nan nan nan nan nan nan nan nan nan nan nan nan nan nan 40 42 41 38 36 32 28 28 nan nan nan nan 30
44 45 46 47 46 47 50 50 46 45 50 47 52 52 50 49 46 44 43 40 37 37 39 40 41 43 45 44 41 41 41 40 41 43 35 27 20 nan nan nan nan nan nan nan 19 21 18 nan nan nan nan nan 17 20 25 28 nan nan nan nan nan nan nan nan nan nan nan nan nan nan nan nan nan nan 39 40 39 38 38 33 30 31 31 nan nan
46 45 44 46 49 51 53 54 52 50 50 54 56 50 48 47 46 43 38 34 38 44 42 40 39 40 42 45 42 42 42 42 41 37 32 25 nan nan nan nan nan nan nan nan nan nan nan nan nan nan 15 17 20 23 24 26 nan nan nan nan nan nan nan nan nan nan nan nan nan nan nan nan nan nan nan nan 44 nan 39 36 33 30 30 33 34
47 48 49 51 50 50 52 51 49 51 55 55 53 52 51 49 49 42 39 39 44 44 43 42 45 43 40 41 42 43 44 43 40 36 31 nan nan nan nan nan nan nan nan 19 nan nan nan nan nan 14 15 15 17 23 25 26 nan nan nan nan nan 15 nan nan nan nan nan nan nan nan nan nan nan nan nan nan nan 46 nan 35 29 31 31 32 36
45 46 46 49 50 51 52 52 52 52 53 54 52 50 50 50 47 43 41 43 44 43 41 41 40 39 43 42 42 42 43 43 nan nan nan nan nan nan nan nan nan nan nan nan nan nan nan nan 14 17 19 21 nan nan 19 23 nan nan nan nan 21 15 8 1 6 nan nan nan nan nan nan nan nan nan nan nan nan nan nan nan 35 28 31 41 39
47 46 48 48 48 52 54 52 52 52 53 58 nan nan 48 45 47 50 47 nan nan nan nan nan nan nan nan 41 41 43 45 nan nan nan nan nan nan nan nan nan nan nan nan nan nan nan nan 15 16 nan nan nan nan nan nan nan nan nan nan nan nan 18 11 4 1 5 nan nan nan nan nan nan nan nan nan nan nan nan nan nan 45 42 36 34 32
48 48 49 49 49 55 54 53 54 53 52 55 57 nan 55 52 49 nan nan nan nan nan nan nan nan nan nan nan nan nan nan nan nan nan nan nan nan nan nan nan nan nan nan nan nan nan nan 15 nan nan nan nan nan nan nan nan nan nan nan nan nan nan 16 8 2 nan nan nan nan nan nan nan nan nan nan nan nan nan nan nan 46 46 46 45 49
48 47 49 51 58 58 58 56 54 56 52 51 51 52 53 nan nan nan nan nan nan nan nan nan nan nan nan nan nan nan nan nan nan nan nan nan nan nan nan nan nan nan nan nan nan 17 nan nan nan nan nan nan nan nan nan nan nan nan nan nan nan nan nan 15 8 nan nan nan nan nan nan nan nan nan nan nan nan nan nan nan nan nan 45 nan nan
50 49 49 53 58 54 55 54 54 54 54 50 48 53 53 54 52 49 48 48 nan nan nan nan nan nan nan nan nan nan nan nan nan nan nan nan nan nan nan nan nan nan nan nan 17 nan nan nan nan nan nan nan nan nan nan nan nan nan nan nan nan nan nan nan nan nan nan nan nan nan nan nan nan nan nan nan nan nan nan nan nan nan nan nan nan
48 48 50 52 54 51 50 51 51 49 50 51 49 51 51 50 49 46 44 43 nan nan nan nan nan nan nan nan nan nan nan nan nan nan nan nan nan nan nan nan nan nan nan nan nan nan nan nan nan nan nan nan nan nan nan nan nan nan nan nan nan nan nan nan nan nan nan 4 nan nan nan nan nan nan nan nan nan nan nan nan nan nan nan nan nan
50 49 49 51 50 49 49 52 50 49 51 49 48 49 48 45 43 43 43 nan nan nan nan nan nan nan nan nan nan nan nan nan nan nan nan nan nan nan nan nan nan nan nan nan nan nan nan nan nan nan nan nan nan nan nan nan nan nan nan nan nan nan nan nan nan nan nan nan nan nan nan nan nan nan nan nan nan nan nan nan nan nan nan nan nan
50 50 53 50 48 48 49 51 54 51 50 46 47 46 44 43 42 41 39 nan nan nan nan nan nan nan nan nan nan nan nan nan nan nan nan nan nan nan nan nan 23 nan nan nan nan nan nan nan nan nan nan nan nan nan nan nan nan nan nan nan nan nan nan nan nan nan nan nan nan nan nan nan nan nan nan nan nan nan nan nan nan nan nan nan nan
49 49 52 52 52 52 51 51 49 47 45 44 42 41 38 38 39 39 37 39 41 nan nan nan nan nan nan nan nan nan nan nan nan nan nan nan nan nan nan nan nan nan nan nan nan nan nan nan nan nan nan nan nan nan nan nan nan nan nan nan nan nan nan nan nan nan nan nan nan nan nan nan nan nan nan nan nan nan nan nan nan nan nan nan nan
52 50 51 51 51 50 49 47 45 42 42 40 39 37 38 38 39 40 40 40 40 41 nan nan nan nan nan nan nan nan nan nan nan nan nan nan nan nan nan nan nan nan nan nan nan nan nan nan nan nan nan nan nan nan nan nan nan nan nan nan nan nan nan nan nan nan nan nan nan nan nan nan nan nan nan nan nan nan nan nan nan nan nan nan nan
51 50 50 49 48 47 44 42 42 40 38 38 38 37 38 39 39 nan nan nan nan nan nan nan nan nan nan nan nan nan nan nan nan nan nan nan nan nan nan nan nan nan nan nan nan nan nan nan nan nan nan nan nan nan nan nan nan nan nan nan nan nan nan nan nan nan nan nan nan nan nan nan nan nan nan nan nan nan nan nan nan nan nan nan 54
51 51 51 45 45 42 41 39 39 37 37 37 37 36 36 37 nan nan nan nan nan nan nan nan nan nan nan nan nan nan nan nan nan nan nan nan nan nan nan nan nan nan nan nan nan nan nan nan nan nan nan nan nan nan nan nan nan nan nan nan nan nan nan nan nan nan nan nan nan nan nan nan nan nan nan nan nan nan nan nan nan nan nan nan nan
49 49 48 nan 39 40 38 39 38 36 38 37 37 37 nan nan nan nan nan nan nan nan nan nan nan nan nan nan nan nan nan nan nan nan nan nan nan nan nan nan nan nan nan nan nan nan nan nan nan nan nan nan nan nan nan nan nan nan nan nan nan nan nan nan nan nan nan nan nan nan nan nan nan nan nan nan nan nan nan nan nan nan nan nan nan
47 48 47 44 39 39 40 39 39 37 38 38 37 35 nan nan nan nan nan nan nan nan nan nan nan nan nan nan nan nan nan nan nan nan nan nan nan nan nan nan nan nan nan nan nan nan nan nan nan nan nan nan nan nan nan nan nan nan nan nan nan nan nan nan nan nan nan nan nan nan nan nan nan nan nan nan nan nan nan nan nan nan nan nan nan
47 47 43 42 39 37 40 40 40 40 38 37 nan nan nan nan nan nan nan nan nan nan nan nan nan nan nan nan nan nan nan nan nan nan nan nan nan nan nan nan nan nan nan nan nan nan nan nan nan nan nan nan nan nan nan nan nan nan nan nan nan nan nan nan nan nan nan nan nan nan nan nan nan nan nan nan nan nan nan nan nan nan nan nan nan
45 43 41 39 39 39 41 40 39 37 nan nan nan nan nan nan nan nan nan nan nan nan nan nan nan nan nan nan nan nan nan nan nan nan nan nan nan nan nan nan nan nan nan nan nan nan nan nan nan nan nan nan nan nan nan nan nan nan nan nan nan nan nan nan nan nan nan nan nan nan nan nan nan nan nan nan nan nan nan nan nan nan nan nan nan
43 42 39 37 39 39 39 38 nan nan nan nan nan nan nan nan nan nan nan nan nan nan nan nan nan nan nan nan nan nan nan nan nan nan nan nan nan nan nan nan nan nan nan nan nan nan nan nan nan nan nan nan nan nan nan nan nan nan nan nan nan nan nan nan nan nan nan nan nan nan nan nan nan nan nan nan nan nan nan nan nan nan nan nan nan
41 40 38 38 39 38 nan nan nan nan nan nan nan nan nan nan nan nan nan nan nan nan nan nan nan nan nan nan nan nan nan nan nan nan nan nan nan nan nan nan nan nan nan nan nan nan nan nan nan nan nan nan nan nan nan nan nan nan nan nan nan nan nan nan nan nan nan nan nan nan nan nan nan nan nan nan nan nan nan nan nan nan nan nan nan
38 nan nan 38 39 nan nan nan nan nan nan nan nan nan nan nan nan nan nan nan nan nan nan nan nan nan nan nan nan nan nan nan nan nan nan nan nan nan nan nan nan nan nan nan nan nan nan nan nan nan nan nan nan nan nan nan nan nan nan nan nan nan nan nan nan nan nan nan nan nan nan nan nan nan nan nan nan nan nan nan nan nan nan nan nan
nan nan nan nan nan nan nan nan nan nan nan nan nan nan nan nan nan nan nan nan nan nan nan nan nan nan nan nan nan nan nan nan nan nan nan nan nan nan nan nan nan nan nan nan nan nan nan nan nan nan nan nan nan nan nan nan nan nan nan nan nan nan nan nan nan nan nan nan nan nan nan nan nan nan nan nan nan nan nan nan nan nan nan nan nan
nan nan nan nan nan nan nan nan nan nan nan nan nan nan nan nan nan nan nan nan nan nan nan nan nan nan nan nan nan nan nan nan nan nan nan nan nan nan nan nan nan nan nan nan nan nan nan nan nan nan nan nan nan nan nan nan nan nan nan nan nan nan nan nan nan nan nan nan nan nan nan nan nan nan nan nan nan nan nan nan nan nan nan nan nan
nan nan nan nan nan nan nan nan nan nan nan nan nan nan nan nan nan nan nan nan nan nan nan nan nan nan nan nan nan nan nan nan nan nan nan nan nan nan nan nan nan nan nan nan nan nan nan nan nan nan nan nan nan nan nan nan nan nan nan nan nan nan nan nan nan nan nan nan nan nan nan nan nan nan nan nan nan nan nan nan nan nan nan nan nan
nan nan nan nan nan nan nan nan nan nan nan nan nan nan nan nan nan nan nan nan nan nan nan nan nan nan nan nan nan nan nan nan nan nan nan nan nan nan nan nan nan nan nan nan nan nan nan nan nan nan nan nan nan nan nan nan nan nan nan nan nan nan nan nan nan nan nan nan nan nan nan nan nan nan nan nan nan nan nan nan nan nan nan nan nan
nan nan nan nan nan nan nan nan nan nan nan nan nan nan nan nan nan nan nan nan nan nan nan nan nan nan nan nan nan nan nan nan nan nan nan nan nan nan nan nan nan nan nan nan nan nan nan nan nan nan nan nan nan nan nan nan nan nan nan nan nan nan nan nan nan nan nan nan nan nan nan nan nan nan nan nan nan nan nan nan nan nan nan nan nan
Wind_Direction
310 308 308 308 308 309 311 313 316 317 317 317 316 315 314 315 315 318 319 319 320 322 322 323 322 321 320 318 316 315 315 314 314 314 316 316 316 313 311 310 309 305 305 305 303 301 297 293 290 287 285 281 277 274 272 269 267 268 266 263 261 259 256 256 253 nan nan 249 243 238 244 247 243 249 246 236 231 232 236 237 240 245 246 243 240
309 308 308 309 311 311 313 313 316 317 318 317 318 316 315 316 316 316 321 323 323 324 324 322 321 322 320 318 317 316 316 316 315 316 317 318 317 315 311 310 310 307 306 306 302 299 295 292 288 286 285 281 277 274 273 nan nan nan nan nan nan nan nan nan nan nan nan nan nan 238 239 248 244 246 240 235 234 236 237 237 238 244 245 242 241
309 308 309 310 311 312 312 314 315 317 319 318 320 320 320 321 322 324 321 321 323 323 323 323 321 321 320 319 318 317 317 317 316 317 318 319 319 316 311 310 310 308 308 306 303 300 297 292 288 284 283 282 280 279 nan nan nan nan nan nan nan nan nan nan nan nan nan nan nan 236 237 242 246 244 242 236 232 236 237 237 236 241 243 242 240
313 312 312 312 313 313 314 316 319 320 322 319 322 320 nan nan nan 318 320 322 324 323 324 325 324 322 321 320 319 319 318 318 318 317 316 317 318 316 313 312 311 310 310 309 307 305 300 294 290 286 285 285 285 285 nan nan nan nan nan nan nan nan nan nan nan nan nan nan nan nan 236 235 240 243 242 237 234 235 238 236 237 241 245 243 242
313 314 313 314 314 314 317 320 322 321 321 nan nan nan nan nan nan nan nan nan 323 325 324 321 320 321 321 320 319 319 320 315 315 316 316 316 317 315 313 312 312 312 312 312 311 307 300 296 294 290 288 289 nan nan nan nan nan nan nan nan nan nan nan nan nan nan nan nan nan nan nan 236 237 242 244 238 234 234 237 237 238 239 243 246 244
310 311 311 311 311 313 315 319 323 323 323 323 323 320 nan nan nan nan 321 nan 319 318 318 318 318 319 319 320 320 320 319 316 319 318 316 315 313 312 312 312 311 310 311 311 310 305 301 299 296 294 294 293 nan nan nan nan nan nan nan nan nan nan nan nan nan nan nan nan nan nan 233 236 236 240 245 243 236 234 235 237 238 238 241 244 244
305 306 307 309 310 312 315 320 321 322 320 320 320 321 nan nan nan 316 nan 319 nan nan 319 321 319 318 318 317 317 316 318 319 319 319 318 316 313 311 309 308 305 308 309 310 309 305 301 299 299 298 298 299 299 nan nan nan nan nan nan nan nan nan nan nan nan nan nan nan nan 230 227 232 235 232 240 243 238 235 235 236 236 238 240 242 241
306 301 300 303 308 312 316 319 321 320 320 317 317 317 317 318 319 320 318 320 324 322 321 319 317 317 316 316 316 317 320 320 319 319 318 312 312 313 312 310 314 314 310 309 308 305 302 302 303 302 303 305 306 nan nan nan nan nan nan nan nan nan nan nan nan nan nan nan nan nan 225 226 233 232 235 240 237 236 239 240 238 237 238 238 239
298 297 299 304 308 312 315 317 317 319 320 319 318 318 320 322 322 323 322 321 321 322 321 320 319 320 320 320 319 319 318 313 317 318 320 320 317 316 314 312 312 309 307 306 306 305 305 305 306 306 307 311 nan nan nan nan nan nan nan nan nan nan nan nan nan nan nan nan nan nan nan 225 228 229 232 237 237 235 238 242 238 235 236 237 236
304 304 302 303 308 312 314 316 318 318 319 320 319 320 322 323 323 322 322 322 320 321 321 320 322 322 320 318 318 316 311 318 320 323 326 321 318 314 311 310 310 307 306 305 306 305 304 303 302 307 313 315 nan nan nan nan nan nan nan nan nan nan nan nan nan nan nan nan nan nan nan nan nan 227 230 232 233 232 234 238 239 235 233 234 233
306 306 304 304 308 312 316 319 320 321 320 320 320 322 323 322 322 322 322 321 320 319 322 324 322 318 319 320 321 316 318 320 324 327 328 329 321 316 313 312 310 306 303 303 303 301 301 302 302 306 312 314 316 322 325 nan nan nan 322 312 nan nan nan nan nan nan nan nan nan nan nan nan nan nan 227 228 231 231 229 234 238 234 231 234 233
300 304 305 305 309 316 319 321 322 322 322 322 323 323 322 322 323 323 321 321 320 320 320 321 320 320 321 322 319 316 319 323 326 nan 329 329 324 316 314 312 309 304 303 304 305 302 301 301 301 304 311 318 318 317 323 331 332 329 323 312 302 nan nan nan nan nan nan nan nan nan nan nan nan nan nan 224 226 228 227 227 232 234 231 233 232
297 303 307 309 314 318 320 323 323 323 322 323 322 322 321 322 323 322 321 319 318 318 319 320 321 319 320 317 317 319 322 327 nan nan nan 325 324 320 314 312 308 306 307 308 306 305 301 300 302 309 315 319 320 323 326 327 328 327 320 309 nan nan nan nan nan nan nan nan nan nan nan nan nan nan nan nan 222 222 223 224 231 234 232 230 226
299 305 309 314 318 320 322 323 323 322 321 321 321 321 320 320 320 320 318 316 317 319 319 319 320 320 318 318 320 322 325 328 330 329 nan nan 325 320 315 313 308 305 307 309 309 306 306 303 304 309 309 305 321 328 327 326 322 317 312 303 295 nan nan nan nan nan nan nan nan nan nan nan nan nan nan nan nan 219 219 220 230 233 nan nan 227
304 309 314 316 320 322 324 324 323 321 320 319 319 319 319 318 319 318 317 316 316 317 319 318 317 317 319 320 321 324 326 328 329 nan nan nan nan nan 313 314 309 307 306 308 309 306 305 309 310 312 314 319 327 337 330 325 321 317 312 302 289 280 272 255 nan nan nan nan nan nan nan nan nan nan nan nan nan nan 216 211 218 228 228 225 226
311 313 316 319 323 324 323 323 320 318 317 315 316 317 316 316 316 315 315 315 315 316 317 318 318 319 321 322 323 325 327 326 nan nan nan nan nan nan 314 315 313 310 307 309 313 308 310 315 314 316 nan nan 337 344 333 322 323 318 314 306 292 nan nan nan nan nan nan nan nan nan nan nan nan nan nan nan nan nan 219 212 212 228 235 232 231
315 316 318 321 323 321 320 318 317 315 313 313 314 314 312 313 314 313 314 315 315 316 317 318 318 320 322 323 325 326 326 326 nan nan nan nan nan 312 312 313 312 311 310 311 313 312 314 319 321 324 nan 333 342 344 324 318 324 323 319 312 298 287 270 nan nan nan nan nan nan nan nan nan nan nan nan nan nan nan nan 218 218 232 240 237 nan
315 316 318 319 318 316 315 314 313 311 310 310 309 309 309 310 312 312 314 314 314 317 318 317 318 320 323 325 329 329 328 322 nan nan nan nan nan 310 307 310 310 309 310 313 315 317 322 332 331 328 331 332 331 317 317 321 329 328 325 318 308 295 nan nan nan nan nan nan nan nan nan nan nan nan nan nan nan nan nan nan 228 236 238 240 233
314 315 316 315 313 312 311 310 310 309 307 307 307 308 310 312 312 313 314 313 314 316 318 316 318 321 325 328 327 327 327 324 323 321 316 nan nan 310 306 305 307 309 312 313 313 315 318 322 334 339 334 323 314 321 324 nan nan nan nan 327 321 308 281 241 nan nan nan nan nan nan nan nan nan nan nan nan nan nan nan nan 228 237 239 243 244
309 310 311 310 308 307 306 307 306 305 305 305 306 307 310 311 312 313 312 313 317 320 318 317 322 323 324 326 327 328 327 323 316 316 313 nan nan 309 304 301 301 303 307 312 311 312 313 311 314 nan 317 319 322 328 nan nan nan nan nan 333 327 316 283 nan nan nan nan nan nan nan nan nan nan nan nan nan nan nan nan nan 232 235 238 245 251
306 307 307 306 304 304 303 303 304 305 304 306 306 307 309 310 311 312 311 311 313 317 318 320 324 323 324 325 330 323 315 315 312 313 316 nan nan 315 299 296 296 298 304 309 309 307 306 308 310 314 316 320 nan nan nan nan nan nan nan 337 332 334 283 249 217 nan nan nan nan nan nan nan nan nan nan nan nan nan nan nan nan 235 240 249 249
303 303 303 302 301 302 303 303 304 304 305 303 304 307 309 310 311 313 314 315 317 318 318 317 314 310 308 312 299 nan 297 301 309 310 316 318 316 313 302 297 293 293 300 306 306 306 305 308 312 315 316 nan nan nan nan nan nan 343 345 344 342 275 236 223 222 225 nan nan nan nan nan nan 204 205 214 nan nan nan nan nan nan nan 239 246 251
296 299 299 301 302 301 303 305 303 302 303 305 306 305 305 307 306 307 305 307 312 305 295 297 309 313 310 302 300 306 309 312 308 310 309 309 309 310 nan nan nan nan 299 302 300 299 305 312 314 307 nan nan nan nan nan 341 344 344 346 336 310 256 229 217 nan nan nan nan nan nan nan 205 204 204 203 207 nan nan nan nan nan nan nan 242 248
292 294 298 301 302 303 303 302 302 304 304 302 301 304 306 305 303 304 301 300 292 297 308 311 308 307 305 304 307 311 312 308 309 311 311 303 nan nan nan nan nan nan nan 301 302 302 310 313 306 nan nan nan nan 341 340 340 341 346 nan nan nan nan nan nan nan nan nan nan nan nan nan nan 205 204 201 199 201 213 223 228 nan nan nan nan 244
290 292 297 300 301 297 292 292 296 304 301 304 305 306 308 307 307 306 303 302 307 310 310 309 306 304 305 304 309 312 310 308 309 311 313 298 284 nan nan nan nan nan nan nan 309 308 301 nan nan nan nan nan 347 341 336 334 nan nan nan nan nan nan nan nan nan nan nan nan nan nan nan nan nan nan 202 201 201 208 214 216 227 231 235 nan nan
294 295 294 295 295 296 302 305 303 299 303 304 303 308 309 305 301 297 295 302 306 308 306 303 304 303 303 308 310 309 309 307 307 307 301 284 nan nan nan nan nan nan nan nan nan nan nan nan nan nan 335 337 332 329 328 327 nan nan nan nan nan nan nan nan nan nan nan nan nan nan nan nan nan nan nan nan 209 nan 208 212 215 227 236 240 241
298 300 301 297 297 298 297 297 304 308 303 303 306 306 303 301 298 299 304 307 304 303 303 303 301 305 305 304 310 312 307 303 300 296 287 nan nan nan nan nan nan nan nan 282 nan nan nan nan nan 324 339 336 330 337 340 331 nan nan nan nan nan 322 nan nan nan nan nan nan nan nan nan nan nan nan nan nan nan 209 nan 208 213 217 223 235 239
300 302 303 303 304 303 303 307 305 301 304 302 299 298 298 298 299 301 299 295 296 296 296 296 298 301 302 308 307 304 300 300 nan nan nan nan nan nan nan nan nan nan nan nan nan nan nan nan 317 321 317 313 nan nan 330 330 nan nan nan nan 342 343 336 261 206 nan nan nan nan nan nan nan nan nan nan nan nan nan nan nan 206 215 226 228 230
301 301 301 302 301 300 299 298 301 300 297 295 nan nan 290 290 292 291 287 nan nan nan nan nan nan nan nan 303 304 304 302 nan nan nan nan nan nan nan nan nan nan nan nan nan nan nan nan 307 312 nan nan nan nan nan nan nan nan nan nan nan nan 353 349 331 157 181 nan nan nan nan nan nan nan nan nan nan nan nan nan nan 215 214 218 232 230
300 301 300 301 302 295 296 299 296 294 296 296 295 nan 284 284 285 nan nan nan nan nan nan nan nan nan nan nan nan nan nan nan nan nan nan nan nan nan nan nan nan nan nan nan nan nan nan 308 nan nan nan nan nan nan nan nan nan nan nan nan nan nan 3 8 71 nan nan nan nan nan nan nan nan nan nan nan nan nan nan nan 215 218 222 224 225
298 299 299 296 294 299 300 300 301 298 297 293 292 294 293 nan nan nan nan nan nan nan nan nan nan nan nan nan nan nan nan nan nan nan nan nan nan nan nan nan nan nan nan nan nan 300 nan nan nan nan nan nan nan nan nan nan nan nan nan nan nan nan nan 13 28 nan nan nan nan nan nan nan nan nan nan nan nan nan nan nan nan nan 222 nan nan
297 298 300 299 298 299 300 300 300 301 301 300 298 296 294 292 288 281 282 283 nan nan nan nan nan nan nan nan nan nan nan nan nan nan nan nan nan nan nan nan nan nan nan nan 298 nan nan nan nan nan nan nan nan nan nan nan nan nan nan nan nan nan nan nan nan nan nan nan nan nan nan nan nan nan nan nan nan nan nan nan nan nan nan nan nan
297 298 299 300 300 301 300 298 296 294 292 291 291 289 292 294 293 292 285 284 nan nan nan nan nan nan nan nan nan nan nan nan nan nan nan nan nan nan nan nan nan nan nan nan nan nan nan nan nan nan nan nan nan nan nan nan nan nan nan nan nan nan nan nan nan nan nan 94 nan nan nan nan nan nan nan nan nan nan nan nan nan nan nan nan nan
298 299 299 298 297 297 299 300 299 296 292 291 289 289 292 294 295 294 294 nan nan nan nan nan nan nan nan nan nan nan nan nan nan nan nan nan nan nan nan nan nan nan nan nan nan nan nan nan nan nan nan nan nan nan nan nan nan nan nan nan nan nan nan nan nan nan nan nan nan nan nan nan nan nan nan nan nan nan nan nan nan nan nan nan nan
300 302 302 300 299 299 299 295 293 294 295 294 292 290 290 291 293 295 294 nan nan nan nan nan nan nan nan nan nan nan nan nan nan nan nan nan nan nan nan nan 281 nan nan nan nan nan nan nan nan nan nan nan nan nan nan nan nan nan nan nan nan nan nan nan nan nan nan nan nan nan nan nan nan nan nan nan nan nan nan nan nan nan nan nan nan
301 298 297 297 297 295 294 294 294 292 292 292 292 292 292 291 289 289 291 292 294 nan nan nan nan nan nan nan nan nan nan nan nan nan nan nan nan nan nan nan nan nan nan nan nan nan nan nan nan nan nan nan nan nan nan nan nan nan nan nan nan nan nan nan nan nan nan nan nan nan nan nan nan nan nan nan nan nan nan nan nan nan nan nan nan
297 297 296 296 298 297 297 297 297 296 294 293 292 292 291 288 288 290 290 291 293 295 nan nan nan nan nan nan nan nan nan nan nan nan nan nan nan nan nan nan nan nan nan nan nan nan nan nan nan nan nan nan nan nan nan nan nan nan nan nan nan nan nan nan nan nan nan nan nan nan nan nan nan nan nan nan nan nan nan nan nan nan nan nan nan
293 293 295 297 299 298 298 300 300 301 298 295 294 294 295 293 293 nan nan nan nan nan nan nan nan nan nan nan nan nan nan nan nan nan nan nan nan nan nan nan nan nan nan nan nan nan nan nan nan nan nan nan nan nan nan nan nan nan nan nan nan nan nan nan nan nan nan nan nan nan nan nan nan nan nan nan nan nan nan nan nan nan nan nan 215
294 294 295 295 298 300 303 303 303 301 300 299 297 297 297 297 nan nan nan nan nan nan nan nan nan nan nan nan nan nan nan nan nan nan nan nan nan nan nan nan nan nan nan nan nan nan nan nan nan nan nan nan nan nan nan nan nan nan nan nan nan nan nan nan nan nan nan nan nan nan nan nan nan nan nan nan nan nan nan nan nan nan nan nan nan
297 298 295 nan 302 304 304 303 301 300 298 298 298 297 nan nan nan nan nan nan nan nan nan nan nan nan nan nan nan nan nan nan nan nan nan nan nan nan nan nan nan nan nan nan nan nan nan nan nan nan nan nan nan nan nan nan nan nan nan nan nan nan nan nan nan nan nan nan nan nan nan nan nan nan nan nan nan nan nan nan nan nan nan nan nan
296 294 294 294 293 300 301 300 298 296 296 295 295 297 nan nan nan nan nan nan nan nan nan nan nan nan nan nan nan nan nan nan nan nan nan nan nan nan nan nan nan nan nan nan nan nan nan nan nan nan nan nan nan nan nan nan nan nan nan nan nan nan nan nan nan nan nan nan nan nan nan nan nan nan nan nan nan nan nan nan nan nan nan nan nan
295 295 296 298 301 302 300 299 298 297 297 297 nan nan nan nan nan nan nan nan nan nan nan nan nan nan nan nan nan nan nan nan nan nan nan nan nan nan nan nan nan nan nan nan nan nan nan nan nan nan nan nan nan nan nan nan nan nan nan nan nan nan nan nan nan nan nan nan nan nan nan nan nan nan nan nan nan nan nan nan nan nan nan nan nan
293 294 295 296 299 299 299 300 300 299 nan nan nan nan nan nan nan nan nan nan nan nan nan nan nan nan nan nan nan nan nan nan nan nan nan nan nan nan nan nan nan nan nan nan nan nan nan nan nan nan nan nan nan nan nan nan nan nan nan nan nan nan nan nan nan nan nan nan nan nan nan nan nan nan nan nan nan nan nan nan nan nan nan nan nan
293 294 294 297 296 296 298 300 nan nan nan nan nan nan nan nan nan nan nan nan nan nan nan nan nan nan nan nan nan nan nan nan nan nan nan nan nan nan nan nan nan nan nan nan nan nan nan nan nan nan nan nan nan nan nan nan nan nan nan nan nan nan nan nan nan nan nan nan nan nan nan nan nan nan nan nan nan nan nan nan nan nan nan nan nan
292 293 296 297 296 296 nan nan nan nan nan nan nan nan nan nan nan nan nan nan nan nan nan nan nan nan nan nan nan nan nan nan nan nan nan nan nan nan nan nan nan nan nan nan nan nan nan nan nan nan nan nan nan nan nan nan nan nan nan nan nan nan nan nan nan nan nan nan nan nan nan nan nan nan nan nan nan nan nan nan nan nan nan nan nan
287 nan nan 289 291 nan nan nan nan nan nan nan nan nan nan nan nan nan nan nan nan nan nan nan nan nan nan nan nan nan nan nan nan nan nan nan nan nan nan nan nan nan nan nan nan nan nan nan nan nan nan nan nan nan nan nan nan nan nan nan nan nan nan nan nan nan nan nan nan nan nan nan nan nan nan nan nan nan nan nan nan nan nan nan nan
nan nan nan nan nan nan nan nan nan nan nan nan nan nan nan nan nan nan nan nan nan nan nan nan nan nan nan nan nan nan nan nan nan nan nan nan nan nan nan nan nan nan nan nan nan nan nan nan nan nan nan nan nan nan nan nan nan nan nan nan nan nan nan nan nan nan nan nan nan nan nan nan nan nan nan nan nan nan nan nan nan nan nan nan nan
nan nan nan nan nan nan nan nan nan nan nan nan nan nan nan nan nan nan nan nan nan nan nan nan nan nan nan nan nan nan nan nan nan nan nan nan nan nan nan nan nan nan nan nan nan nan nan nan nan nan nan nan nan nan nan nan nan nan nan nan nan nan nan nan nan nan nan nan nan nan nan nan nan nan nan nan nan nan nan nan nan nan nan nan nan
nan nan nan nan nan nan nan nan nan nan nan nan nan nan nan nan nan nan nan nan nan nan nan nan nan nan nan nan nan nan nan nan nan nan nan nan nan nan nan nan nan nan nan nan nan nan nan nan nan nan nan nan nan nan nan nan nan nan nan nan nan nan nan nan nan nan nan nan nan nan nan nan nan nan nan nan nan nan nan nan nan nan nan nan nan
nan nan nan nan nan nan nan nan nan nan nan nan nan nan nan nan nan nan nan nan nan nan nan nan nan nan nan nan nan nan nan nan nan nan nan nan nan nan nan nan nan nan nan nan nan nan nan nan nan nan nan nan nan nan nan nan nan nan nan nan nan nan nan nan nan nan nan nan nan nan nan nan nan nan nan nan nan nan nan nan nan nan nan nan nan
nan nan nan nan nan nan nan nan nan nan nan nan nan nan nan nan nan nan nan nan nan nan nan nan nan nan nan nan nan nan nan nan nan nan nan nan nan nan nan nan nan nan nan nan nan nan nan nan nan nan nan nan nan nan nan nan nan nan nan nan nan nan nan nan nan nan nan nan nan nan nan nan nan nan nan nan nan nan nan nan nan nan nan nan nan